STARLINK-5769 (55585 NORAD) Tracking and Keplerian Element Data

This shows tracking and keplerian element data for the satellite.

Feedback or suggestion? Click here.




ElementValue
Catalog55585
NameSTARLINK-5769
Epoch Orbit660
Epoch Day85.25001157
Epoch Year2023
RAAN103.9504
Inclination43
Eccentricity0.0001494
Argument of Perigee257.3668
Mean Anonmoly77.1029
Mean Motion15.48917734
Decay Rate-0.00021233
L11 55585U 23020S 23085.25001157 -.00021233 00000+0 -37884-3 0 9999
L22 55585 43.0000 103.9504 0001494 257.3668 77.1029 15.48917734 6601



Live tracking and technical data element details for STARLINK-5769 (NORAD 55585). STARLINK-5769 can be tracked NOW for your location showing map with azimuth and elevation plus other details from your city location.







IsCatalogInMostPopularTable: catalog: 55585, numindb: -1

Insert: records affected: 1


GetName: 55585 STARLINK-5769

Hit Count: inserted at: Tue, 28 Mar 2023 01:28:29 GMT